This is the latest recevied weather packets stored in our database for station/object KB1JDX. If no packets are shown the sender has not sent any weather packets the latest 10 day(s).
| Time | Temp. | Humidity | Pressure | Rain* | Wind** | Luminosity | Snow |
|---|---|---|---|---|---|---|---|
| 1778247638 | 13.33° C | 48% | 1010.8 hPa | 0 mm | 0 m/s | - | - |
| 1778246436 | 13.33° C | 47% | 1010.7 hPa | 0 mm | 0 m/s | - | - |
| 1778246368 | 12.78° C | 48% | 1010.8 hPa | 0 mm | 0 m/s | - | - |
| 1778245236 | 12.22° C | 51% | 1010.8 hPa | 0 mm | 0 m/s | - | - |
| 1778244037 | 11.11° C | 54% | 1010.8 hPa | 0 mm | 0 m/s | - | - |
| 1778242838 | 9.44° C | 58% | 1010.8 hPa | 0 mm | 0 m/s | - | - |
| 1778242768 | 9.44° C | 58% | 1010.8 hPa | 0 mm | 0 m/s | - | - |
| 1778241636 | 7.22° C | 67% | 1010.8 hPa | 0 mm | 0 m/s | - | - |
| 1778240437 | 6.67° C | 56% | 1010.9 hPa | 0 mm | 0 m/s | - | - |
| 1778239237 | 5.56° C | 43% | 1010.8 hPa | 0 mm | 0 m/s | - | - |
| 1778239168 | 5.56° C | 43% | 1010.8 hPa | 0 mm | 0 m/s | - | - |
| 1778238038 | 4.44° C | 37% | 1010.6 hPa | 0 mm | 0 m/s | - | - |
| 1778236836 | 3.89° C | 36% | 1010.5 hPa | 0 mm | 0 m/s | - | - |
| 1778235637 | 3.33° C | 32% | 1010.4 hPa | 0 mm | 0 m/s | - | - |
| 1778235568 | 3.33° C | 32% | 1010.4 hPa | 0 mm | 0 m/s | - | - |
| 1778234436 | 3.33° C | 33% | 1010 hPa | 0 mm | 0 m/s | - | - |
| 1778233236 | 3.33° C | 35% | 1009.9 hPa | 0 mm | 0 m/s | - | - |
| 1778232037 | 3.33° C | 36% | 1009.9 hPa | 0 mm | 0 m/s | - | - |
| 1778231968 | 3.33° C | 36% | 1009.9 hPa | 0 mm | 0 m/s | - | - |
| 1778230836 | 3.89° C | 32% | 1009.9 hPa | 0 mm | 0 m/s | - | - |
| 1778229636 | 3.33° C | 33% | 1009.6 hPa | 0 mm | 0 m/s | - | - |
| 1778228437 | 2.78° C | 36% | 1009.6 hPa | 0 mm | 0 m/s | - | - |
| 1778228368 | 2.78° C | 36% | 1009.6 hPa | 0 mm | 0 m/s | - | - |
| 1778227236 | 2.78° C | 38% | 1009.6 hPa | 0 mm | 0 m/s | - | - |
| 1778226036 | 2.78° C | 41% | 1009.2 hPa | 0 mm | 0 m/s | - | - |
* Rain latest hour (hover to see other rain measurements)
** Current wind speed in m/s (hover to see current wind gust speed)